EW1931 Weather Reports


time (UTC)temp
F
wind
direction
speed
knots
gust
knots
rain 1hr
in
rain 24hr
in
rain mn
in
humidity
%
barometer
mb
20260503013103 64 84 2.6 7.8 0.00 0.00 0.00 37 927.2
20260503011608 64 79 1.7 4.3 0.00 0.00 0.00 36 927.2
20260503010121 65 5 0.9 5.2 0.00 0.00 0.00 34 927.3
20260503004557 66 342 2.6 5.2 0.00 0.00 0.00 35 927.3
20260503003100 67 342 2.6 6.1 0.00 0.00 0.00 34 927.3
20260503001600 66 338 3.5 7.0 0.00 0.00 0.00 34 927.5
20260503000035 67 350 7.8 10.4 0.00 0.00 0.00 33 927.4
20260502234538 67 35 3.5 8.7 0.00 0.00 0.00 33 927.6
20260502233018 68 229 4.3 9.6 0.00 0.00 0.00 33 927.6
20260502231516 67 5 5.2 13.0 0.00 0.00 0.00 33 927.9
20260502230056 67 31 1.7 10.4 0.00 0.00 0.00 34 928.1
20260502224601 67 216 2.6 10.4 0.00 0.00 0.00 35 928.1
20260502223037 67 355 5.2 8.7 0.00 0.00 0.00 34 928.2
20260502221537 65 28 0.9 8.7 0.00 0.00 0.00 36 928.3
20260502220025 66 286 3.5 7.0 0.00 0.00 0.00 35 928.3
20260502214535 67 309 6.1 12.2 0.00 0.00 0.00 35 928.6
20260502213028 67 24 5.2 11.3 0.00 0.00 0.00 35 928.6
20260502211527 67 335 6.1 12.2 0.00 0.00 0.00 35 928.8
20260502210028 66 336 7.0 11.3 0.00 0.00 0.00 37 929.0
20260502204520 65 5 7.8 13.9 0.00 0.00 0.00 37 929.0
20260502203020 66 207 3.5 11.3 0.00 0.00 0.00 35 929.0
20260502201522 66 258 4.3 13.0 0.00 0.00 0.00 35 929.2
20260502200047 65 355 5.2 14.8 0.00 0.00 0.00 36 929.3
20260502194550 66 24 9.6 14.8 0.00 0.00 0.00 35 929.4
20260502193029 66 10 7.8 12.2 0.00 0.00 0.00 37 929.5
20260502191526 64 24 9.6 15.6 0.00 0.00 0.00 39 929.6
20260502190019 64 16 6.1 11.3 0.00 0.00 0.00 38 929.6
20260502184510 64 333 6.1 9.6 0.00 0.00 0.00 38 929.7
20260502183053 65 54 7.0 12.2 0.00 0.00 0.00 38 929.8
20260502181550 65 338 7.8 15.6 0.00 0.00 0.00 38 929.9
20260502163034 61 61 6.1 14.8 0.00 0.00 0.00 43 930.1
20260502161530 61 49 7.0 13.0 0.00 0.00 0.00 43 930.2
20260502151547 58 54 9.6 12.2 0.00 0.00 0.00 45 930.1
20260502123048 45 26 10.4 14.8 0.00 0.00 0.00 60 929.3
20260502121532 45 26 10.4 15.6 0.00 0.00 0.00 60 929.1
20260502114515 46 38 11.3 16.5 0.00 0.00 0.00 58 928.8
20260502113010 47 17 8.7 15.6 0.00 0.00 0.00 56 928.7
20260502111507 47 36 12.2 14.8 0.00 0.00 0.00 56 928.5
20260502110011 47 44 9.6 13.9 0.00 0.00 0.00 54 928.3
20260502104501 48 53 9.6 13.0 0.00 0.00 0.00 52 928.1
20260502103059 49 44 8.7 11.3 0.00 0.00 0.00 50 928.1
20260502101615 49 34 10.4 15.6 0.00 0.00 0.00 48 927.9
20260502100110 48 19 9.6 13.0 0.00 0.00 0.00 49 928.0
20260502091513 50 360 11.3 17.4 0.00 0.00 0.00 44 927.9
20260502070109 49 350 5.2 7.0 0.00 0.00 0.00 40 927.2
20260502064610 49 355 5.2 7.8 0.00 0.00 0.00 40 927.3
20260502063052 49 355 6.1 8.7 0.00 0.00 0.00 39 927.3
20260502060030 50 26 3.5 7.8 0.00 0.00 0.00 37 927.3
20260502054507 50 360 5.2 7.0 0.00 0.00 0.00 35 927.3
20260502053003 51 335 7.8 11.3 0.00 0.00 0.00 36 927.3
20260502051545 54 355 8.7 12.2 0.00 0.00 0.00 33 927.4
20260502050047 56 319 3.5 11.3 0.00 0.00 0.00 31 927.3
20260502044527 56 336 8.7 12.2 0.00 0.00 0.00 31 927.3
20260502043028 56 327 7.8 11.3 0.00 0.00 0.00 29 927.3
20260502041510 59 319 8.7 13.0 0.00 0.00 0.00 26 927.3
20260502040009 59 329 9.6 11.3 0.00 0.00 0.00 24 927.4
20260502034551 59 326 9.6 11.3 0.00 0.00 0.00 25 927.3
20260502033051 58 286 2.6 5.2 0.00 0.00 0.00 27 927.2
20260502031533 60 310 1.7 6.1 0.00 0.00 0.00 26 927.2
20260502030033 62 304 4.3 8.7 0.00 0.00 0.00 24 927.0
20260502024516 66 226 5.2 6.1 0.00 0.00 0.00 22 926.9
20260502023015 65 217 4.3 6.1 0.00 0.00 0.00 22 926.9
20260502021557 66 215 4.3 5.2 0.00 0.00 0.00 23 926.8
20260502020056 68 223 5.2 7.0 0.00 0.00 0.00 21 926.8
20260502014538 69 225 5.2 7.8 0.00 0.00 0.00 20 926.8